Location: Brede
(50.9167°N, 0.6000°E)
Time: 02:02:02
(UTC+00:00)

NOSS 3-2 (C) - Pass Details

Date: 08 August 2020
Orbit: 800 x 1413 km, 63.4° (Epoch: 15 September)

Event Time Altitude Azimuth Distance (km) Brightness Sun altitude
Exits shadow 00:07:45 - 252° (WSW) 2,773 5.7 -23.0°
Reaches altitude 10° 00:08:19 10° 254° (WSW) 2,572 5.5 -23.0°
Maximum altitude 00:14:07 49° 329° (NNW) 1,264 4.4 -23.0°
Drops below altitude 10° 00:20:50 10° 43° (NE) 2,975 6.7 -22.9°
Sets 00:23:51 0° 49° (NE) 4,036 7.4 -22.9°
